Regional Weather Roundup
Issued by NWS Charleston, WV

Home | Current Version | Previous Version | Text Only | Print | Product List | Glossary On
Versions: 1 2 3 4 5 6 7 8 9 10 11 12 13 14 15 16 17 18 19 20 21 22 23 24 25 26 27 28 29 30 31 32 33 34 35 36 37 38 39 40 41 42 43 44 45 46 47 48 49 50
000
ASUS41 KRLX 180610
RWRRLX
West Virginia Regional Weather Roundup
National Weather Service Charleston WV
200 AM EDT THU SEP 18 2014

Note: "fair" indicates few or no clouds below 12,000 feet with no
significant weather and/or obstructions to visibility.

WVZ003-180700-
Northern Panhandle of West Virginia

CITY           SKY/WX    TMP DP  RH WIND       PRES   REMARKS
WHEELING       MOCLDY    53  51  93 CALM      30.00S FOG
$$

WVZ009-180700-
Northwest West Virginia

CITY           SKY/WX    TMP DP  RH WIND       PRES   REMARKS
PARKERSBURG    CLEAR     51  49  92 CALM      30.02R
$$

WVZ006-180700-
Western West Virginia

CITY           SKY/WX    TMP DP  RH WIND       PRES   REMARKS
HUNTINGTON     CLEAR     55  54  96 CALM      29.99S FOG
$$

WVZ015-180700-
West Central West Virginia

CITY           SKY/WX    TMP DP  RH WIND       PRES   REMARKS
CHARLESTON     CLOUDY    58  58 100 CALM      29.98R FOG
$$

WVZ031-180700-
North Central West Virginia

CITY           SKY/WX    TMP DP  RH WIND       PRES   REMARKS
CLARKSBURG     MOCLDY    56  53  90 CALM      29.99R
MORGANTOWN     CLEAR     56  52  86 CALM      30.00S
$$

WVZ035-042-045-180700-
South Central West Virginia

CITY           SKY/WX    TMP DP  RH WIND       PRES   REMARKS
BECKLEY        MOCLDY    56  54  93 CALM      30.01S
BLUEFIELD      CLEAR     58  54  86 N3        30.02S
LEWISBURG      FOG       51  50  93 CALM      30.01S VSB 1/4
$$

WVZ047-180700-
Northern Mountains of West Virginia

CITY           SKY/WX    TMP DP  RH WIND       PRES   REMARKS
ELKINS         MOCLDY    52  50  93 CALM      30.02S
$$

WVZ052-180700-
Eastern Panhandle of West Virginia

CITY           SKY/WX    TMP DP  RH WIND       PRES   REMARKS
MARTINSBURG    CLOUDY    57  52  83 CALM      29.98R
PETERSBURG     FOG       51  49  93 CALM      30.00S VSB 3/4
$$


USA.gov is the U.S. government's official web portal to all federal, state and local government web resources and services.